AAL1211 KPHL-KPWM

Flight info

Callsign AAL1211
Flight time 1h 3m
Altitude 17000
Route DITCH T416 JIMEE/N0445F370 WAVEY SHIPP CCC SCOGS3
Aircraft A319/M-SDE3FGHIRWY/LB1

Departure

Time 2026-04-24 22:20
Airport Philadelphia International Airport (KPHL)

Arrival

Time 2026-04-24 23:23
Airport Portland International Jetport (KPWM)
Time Latitude Longitude Altitude Speed Heading
2026-04-24 22:13 39.87461 -75.24245 29 ft 0 kts 165°
2026-04-24 22:15 39.87459 -75.24244 29 ft 1 kts 165°
2026-04-24 22:15 39.87440 -75.24238 28 ft 4 kts 168°
2026-04-24 22:15 39.87400 -75.24234 28 ft 7 kts 177°
2026-04-24 22:15 39.87343 -75.24236 27 ft 9 kts 196°
2026-04-24 22:16 39.87303 -75.24300 25 ft 10 kts 263°
2026-04-24 22:16 39.87289 -75.24392 25 ft 11 kts 254°
2026-04-24 22:16 39.87268 -75.24497 25 ft 13 kts 257°
2026-04-24 22:16 39.87245 -75.24617 28 ft 15 kts 255°
2026-04-24 22:17 39.87217 -75.24752 25 ft 16 kts 255°
2026-04-24 22:17 39.87187 -75.24904 30 ft 18 kts 256°
2026-04-24 22:17 39.87153 -75.25072 27 ft 20 kts 255°
2026-04-24 22:17 39.87117 -75.25253 25 ft 21 kts 255°
2026-04-24 22:18 39.87088 -75.25399 25 ft 16 kts 255°
2026-04-24 22:18 39.87031 -75.25489 25 ft 13 kts 180°
2026-04-24 22:18 39.86966 -75.25562 28 ft 14 kts 218°
2026-04-24 22:18 39.86888 -75.25524 28 ft 15 kts 103°
2026-04-24 22:19 39.86926 -75.25276 26 ft 52 kts 76°
2026-04-24 22:19 39.87062 -75.24603 28 ft 103 kts 75°
2026-04-24 22:19 39.87285 -75.23485 27 ft 151 kts 76°
2026-04-24 22:19 39.87555 -75.22106 499 ft 153 kts 80°
2026-04-24 22:20 39.87835 -75.20783 1163 ft 150 kts 77°
2026-04-24 22:20 39.88104 -75.19461 1754 ft 153 kts 76°
2026-04-24 22:20 39.88391 -75.18042 2071 ft 173 kts 75°
2026-04-24 22:20 39.88445 -75.16389 2341 ft 197 kts 103°
2026-04-24 22:21 39.88046 -75.14565 2640 ft 223 kts 105°
2026-04-24 22:21 39.87630 -75.12506 3070 ft 247 kts 104°
2026-04-24 22:21 39.87186 -75.10241 3633 ft 267 kts 104°
2026-04-24 22:21 39.86718 -75.07852 4498 ft 277 kts 104°
2026-04-24 22:22 39.86234 -75.05400 5408 ft 284 kts 103°
2026-04-24 22:22 39.85727 -75.02854 6212 ft 295 kts 103°
2026-04-24 22:22 39.85202 -75.00240 7035 ft 302 kts 103°
2026-04-24 22:22 39.84670 -74.97609 7889 ft 307 kts 102°
2026-04-24 22:23 39.84121 -74.94894 8762 ft 313 kts 102°
2026-04-24 22:23 39.83563 -74.92132 9592 ft 318 kts 101°
2026-04-24 22:23 39.82994 -74.89317 10278 ft 329 kts 101°
2026-04-24 22:23 39.82393 -74.86337 10547 ft 352 kts 102°
2026-04-24 22:24 39.81754 -74.83183 11016 ft 366 kts 102°
2026-04-24 22:24 39.81093 -74.79959 11703 ft 372 kts 102°
2026-04-24 22:24 39.80421 -74.76689 12446 ft 376 kts 102°
2026-04-24 22:24 39.79793 -74.73375 13168 ft 379 kts 97°
2026-04-24 22:25 39.79578 -74.69969 13856 ft 379 kts 85°
2026-04-24 22:25 39.79801 -74.66561 14497 ft 379 kts 79°
2026-04-24 22:25 39.80094 -74.63137 15152 ft 382 kts 79°
2026-04-24 22:25 39.80384 -74.59687 15805 ft 386 kts 79°
2026-04-24 22:26 39.80672 -74.56201 16444 ft 389 kts 79°
2026-04-24 22:26 39.80961 -74.52686 17107 ft 393 kts 79°
2026-04-24 22:26 39.81248 -74.49182 17744 ft 396 kts 79°
2026-04-24 22:26 39.81541 -74.45603 18353 ft 400 kts 80°
2026-04-24 22:27 39.81744 -74.41977 18892 ft 406 kts 86°
2026-04-24 22:27 39.81739 -74.38288 19441 ft 410 kts 86°
2026-04-24 22:27 39.81733 -74.34568 19999 ft 414 kts 86°
2026-04-24 22:27 39.81727 -74.30803 20512 ft 418 kts 86°
2026-04-24 22:28 39.81721 -74.27004 21044 ft 422 kts 86°
2026-04-24 22:28 39.81715 -74.23175 21567 ft 426 kts 86°
2026-04-24 22:28 39.81886 -74.19329 22082 ft 425 kts 76°
2026-04-24 22:28 39.82556 -74.15610 22594 ft 421 kts 65°
2026-04-24 22:29 39.85262 -74.08983 23590 ft 413 kts 47°
2026-04-24 22:29 39.86950 -74.05948 24014 ft 415 kts 47°
2026-04-24 22:29 39.88645 -74.02898 24467 ft 417 kts 47°
2026-04-24 22:30 39.90350 -73.99828 24939 ft 419 kts 46°
2026-04-24 22:30 39.92060 -73.96742 25365 ft 421 kts 46°
2026-04-24 22:30 39.93775 -73.93639 25798 ft 423 kts 46°
2026-04-24 22:30 39.95496 -73.90524 26226 ft 425 kts 46°
2026-04-24 22:31 39.97226 -73.87392 26644 ft 426 kts 46°
2026-04-24 22:31 39.98942 -73.84283 27059 ft 428 kts 46°
2026-04-24 22:31 40.00681 -73.81126 27538 ft 429 kts 45°
2026-04-24 22:31 40.02428 -73.77948 27981 ft 431 kts 45°
2026-04-24 22:32 40.04175 -73.74764 28398 ft 433 kts 45°
2026-04-24 22:32 40.05931 -73.71556 28804 ft 435 kts 45°
2026-04-24 22:32 40.07696 -73.68338 29202 ft 436 kts 45°
2026-04-24 22:32 40.09466 -73.65111 29606 ft 438 kts 45°
2026-04-24 22:33 40.11242 -73.61862 29979 ft 440 kts 45°
2026-04-24 22:33 40.13030 -73.58596 30292 ft 442 kts 45°
2026-04-24 22:33 40.14821 -73.55322 30585 ft 445 kts 45°
2026-04-24 22:33 40.16625 -73.52021 30910 ft 446 kts 44°
2026-04-24 22:34 40.18430 -73.48714 31229 ft 448 kts 44°
2026-04-24 22:34 40.20240 -73.45394 31522 ft 449 kts 44°
2026-04-24 22:34 40.22056 -73.42046 31814 ft 451 kts 44°
2026-04-24 22:34 40.23882 -73.38715 32206 ft 448 kts 43°
2026-04-24 22:35 40.25785 -73.35515 32612 ft 444 kts 40°
2026-04-24 22:35 40.27736 -73.32458 33007 ft 441 kts 39°
2026-04-24 22:35 40.29740 -73.29441 33433 ft 439 kts 38°
2026-04-24 22:35 40.31791 -73.26514 33868 ft 430 kts 33°
2026-04-24 22:36 40.34068 -73.24068 34262 ft 417 kts 24°
2026-04-24 22:36 40.36513 -73.22123 34635 ft 408 kts 19°
2026-04-24 22:36 40.38986 -73.20305 34969 ft 408 kts 20°
2026-04-24 22:36 40.41454 -73.18469 35282 ft 408 kts 20°
2026-04-24 22:37 40.43921 -73.16625 35585 ft 408 kts 20°
2026-04-24 22:37 40.46392 -73.14779 35877 ft 408 kts 20°
2026-04-24 22:37 40.48865 -73.12935 36175 ft 408 kts 20°
2026-04-24 22:37 40.51333 -73.11096 36459 ft 408 kts 20°
2026-04-24 22:38 40.53804 -73.09252 36747 ft 408 kts 20°
2026-04-24 22:38 40.56280 -73.07406 36902 ft 409 kts 20°
2026-04-24 22:38 40.61220 -73.03725 36929 ft 408 kts 20°
2026-04-24 22:39 40.66152 -73.00048 36931 ft 407 kts 20°
2026-04-24 22:39 40.71079 -72.96354 36930 ft 407 kts 20°
2026-04-24 22:40 40.75998 -72.92664 36939 ft 412 kts 21°
2026-04-24 22:40 40.80990 -72.88914 36940 ft 413 kts 21°
2026-04-24 22:41 40.85980 -72.85158 36935 ft 413 kts 21°
2026-04-24 22:41 40.90162 -72.82005 36967 ft 413 kts 21°
2026-04-24 22:42 40.94891 -72.77516 36953 ft 429 kts 34°
2026-04-24 22:42 40.99204 -72.72127 36956 ft 429 kts 34°
2026-04-24 22:43 41.03556 -72.66713 36957 ft 429 kts 34°
2026-04-24 22:43 41.07912 -72.61292 36987 ft 430 kts 34°
2026-04-24 22:44 41.12267 -72.55853 36947 ft 431 kts 36°
2026-04-24 22:44 41.16632 -72.50382 36942 ft 432 kts 36°
2026-04-24 22:45 41.21002 -72.44886 36939 ft 433 kts 36°
2026-04-24 22:45 41.25379 -72.39378 36975 ft 433 kts 36°
2026-04-24 22:46 41.29765 -72.33868 36963 ft 434 kts 36°
2026-04-24 22:46 41.34142 -72.28340 36954 ft 434 kts 36°
2026-04-24 22:47 41.38491 -72.22841 36952 ft 434 kts 37°
2026-04-24 22:47 41.42879 -72.17287 36951 ft 435 kts 37°
2026-04-24 22:48 41.47259 -72.11715 36944 ft 435 kts 37°
2026-04-24 22:48 41.51640 -72.06138 36923 ft 435 kts 37°
2026-04-24 22:49 41.56025 -72.00557 36924 ft 436 kts 37°
2026-04-24 22:49 41.60406 -71.94960 36947 ft 436 kts 37°
2026-04-24 22:50 41.64785 -71.89343 36956 ft 437 kts 37°
2026-04-24 22:50 41.69168 -71.83717 36939 ft 437 kts 37°
2026-04-24 22:51 41.73565 -71.78090 36944 ft 437 kts 37°
2026-04-24 22:51 41.77926 -71.72478 36957 ft 438 kts 37°
2026-04-24 22:52 41.82314 -71.66796 36948 ft 439 kts 39°
2026-04-24 22:52 41.85856 -71.59969 36939 ft 456 kts 58°
2026-04-24 22:53 41.88605 -71.52293 36931 ft 457 kts 57°
2026-04-24 22:53 41.91375 -71.44606 36953 ft 458 kts 57°
2026-04-24 22:54 41.94151 -71.36903 36946 ft 458 kts 57°
2026-04-24 22:54 41.96913 -71.29188 36943 ft 459 kts 57°
2026-04-24 22:55 41.98297 -71.25309 36801 ft 460 kts 57°
2026-04-24 22:55 41.99677 -71.21439 36547 ft 459 kts 57°
2026-04-24 22:55 42.01036 -71.17620 36306 ft 459 kts 57°
2026-04-24 22:55 42.02430 -71.13693 36048 ft 459 kts 57°
2026-04-24 22:56 42.03803 -71.09818 35799 ft 459 kts 57°
2026-04-24 22:56 42.05162 -71.05975 35093 ft 464 kts 57°
2026-04-24 22:56 42.06561 -71.02036 34260 ft 469 kts 56°
2026-04-24 22:56 42.08195 -70.98283 33492 ft 459 kts 45°
2026-04-24 22:57 42.10238 -70.95119 33081 ft 440 kts 35°
2026-04-24 22:57 42.12571 -70.92576 32566 ft 424 kts 25°
2026-04-24 22:57 42.15109 -70.90692 32080 ft 409 kts 16°
2026-04-24 22:57 42.17738 -70.89386 31603 ft 400 kts 12°
2026-04-24 22:58 42.20355 -70.88171 31111 ft 396 kts 12°
2026-04-24 22:58 42.22946 -70.86964 30645 ft 392 kts 11°
2026-04-24 22:58 42.25513 -70.85768 30171 ft 388 kts 11°
2026-04-24 22:58 42.28055 -70.84580 29656 ft 384 kts 11°
2026-04-24 22:59 42.30563 -70.83406 29202 ft 378 kts 11°
2026-04-24 22:59 42.33031 -70.82250 28755 ft 373 kts 11°
2026-04-24 22:59 42.37859 -70.79983 27878 ft 363 kts 11°
2026-04-24 23:00 42.40228 -70.78871 27476 ft 358 kts 11°
2026-04-24 23:00 42.42570 -70.77772 27052 ft 354 kts 11°
2026-04-24 23:00 42.44882 -70.76655 26622 ft 352 kts 12°
2026-04-24 23:00 42.47132 -70.75472 26185 ft 351 kts 13°
2026-04-24 23:01 42.49392 -70.74221 25760 ft 349 kts 14°
2026-04-24 23:01 42.51627 -70.72957 25352 ft 347 kts 14°
2026-04-24 23:01 42.53848 -70.71699 24931 ft 344 kts 14°
2026-04-24 23:01 42.56055 -70.70460 24537 ft 342 kts 13°
2026-04-24 23:02 42.58245 -70.69244 24132 ft 339 kts 13°
2026-04-24 23:02 42.60425 -70.68041 23708 ft 337 kts 13°
2026-04-24 23:02 42.62590 -70.66851 23228 ft 335 kts 13°
2026-04-24 23:02 42.64741 -70.65670 22796 ft 331 kts 13°
2026-04-24 23:03 42.66868 -70.64498 22356 ft 327 kts 13°
2026-04-24 23:03 42.68957 -70.63310 21925 ft 325 kts 15°
2026-04-24 23:03 42.71010 -70.62052 21479 ft 322 kts 16°
2026-04-24 23:03 42.73031 -70.60767 21041 ft 320 kts 17°
2026-04-24 23:04 42.75034 -70.59477 20617 ft 317 kts 17°
2026-04-24 23:04 42.77028 -70.58199 20148 ft 315 kts 17°
2026-04-24 23:04 42.79005 -70.56939 19708 ft 313 kts 17°
2026-04-24 23:04 42.80976 -70.55687 19262 ft 311 kts 17°
2026-04-24 23:05 42.82934 -70.54452 18818 ft 309 kts 17°
2026-04-24 23:05 42.84883 -70.53229 18397 ft 308 kts 17°
2026-04-24 23:05 42.86829 -70.52006 17903 ft 307 kts 17°
2026-04-24 23:05 42.88763 -70.50790 17463 ft 304 kts 17°
2026-04-24 23:06 42.90675 -70.49581 17003 ft 302 kts 17°
2026-04-24 23:06 42.92546 -70.48395 16603 ft 299 kts 18°
2026-04-24 23:06 42.94435 -70.47196 16154 ft 297 kts 18°
2026-04-24 23:06 42.96304 -70.46010 15727 ft 295 kts 18°
2026-04-24 23:07 42.98157 -70.44835 15315 ft 293 kts 18°
2026-04-24 23:07 42.99998 -70.43667 14895 ft 291 kts 18°
2026-04-24 23:07 43.01827 -70.42500 14482 ft 290 kts 20°
2026-04-24 23:07 43.03566 -70.41068 14064 ft 292 kts 26°
2026-04-24 23:08 43.05277 -70.39583 13619 ft 291 kts 26°
2026-04-24 23:08 43.06984 -70.38104 13194 ft 289 kts 26°
2026-04-24 23:08 43.08676 -70.36638 12780 ft 287 kts 26°
2026-04-24 23:08 43.10353 -70.35184 12375 ft 285 kts 26°
2026-04-24 23:09 43.12020 -70.33737 11985 ft 283 kts 26°
2026-04-24 23:09 43.13679 -70.32296 11582 ft 282 kts 26°
2026-04-24 23:09 43.15329 -70.30863 11191 ft 281 kts 26°
2026-04-24 23:09 43.16979 -70.29430 10848 ft 281 kts 26°
2026-04-24 23:10 43.18660 -70.27968 10687 ft 290 kts 27°
2026-04-24 23:10 43.20366 -70.26478 10493 ft 291 kts 27°
2026-04-24 23:10 43.22077 -70.25002 10287 ft 289 kts 24°
2026-04-24 23:10 43.23923 -70.24192 10125 ft 270 kts
2026-04-24 23:11 43.25736 -70.24386 9956 ft 256 kts 341°
2026-04-24 23:11 43.27318 -70.25454 9887 ft 254 kts 323°
2026-04-24 23:11 43.28637 -70.27063 9735 ft 254 kts 318°
2026-04-24 23:11 43.29938 -70.28703 9583 ft 254 kts 318°
2026-04-24 23:12 43.31237 -70.30336 9432 ft 253 kts 318°
2026-04-24 23:12 43.32541 -70.31973 9284 ft 253 kts 318°
2026-04-24 23:12 43.33843 -70.33604 9139 ft 253 kts 319°
2026-04-24 23:12 43.35128 -70.35210 8990 ft 253 kts 319°
2026-04-24 23:13 43.36402 -70.36884 8688 ft 253 kts 316°
2026-04-24 23:13 43.37637 -70.38603 8369 ft 253 kts 315°
2026-04-24 23:13 43.38861 -70.40337 8058 ft 252 kts 315°
2026-04-24 23:13 43.40077 -70.42069 7751 ft 252 kts 315°
2026-04-24 23:14 43.41293 -70.43798 7442 ft 252 kts 315°
2026-04-24 23:14 43.42513 -70.45525 7134 ft 251 kts 316°
2026-04-24 23:14 43.43736 -70.47249 6820 ft 252 kts 316°
2026-04-24 23:14 43.44963 -70.48978 6515 ft 252 kts 316°
2026-04-24 23:15 43.46184 -70.50703 6198 ft 251 kts 316°
2026-04-24 23:15 43.47406 -70.52426 5878 ft 251 kts 316°
2026-04-24 23:15 43.48629 -70.54146 5571 ft 251 kts 316°
2026-04-24 23:15 43.49846 -70.55859 5263 ft 250 kts 316°
2026-04-24 23:16 43.51062 -70.57575 4958 ft 250 kts 316°
2026-04-24 23:16 43.52278 -70.59292 4644 ft 251 kts 316°
2026-04-24 23:16 43.53498 -70.61014 4331 ft 252 kts 316°
2026-04-24 23:16 43.54823 -70.62575 4019 ft 250 kts 330°
2026-04-24 23:17 43.56405 -70.63490 3714 ft 246 kts 348°
2026-04-24 23:17 43.58096 -70.63680 3469 ft 241 kts
2026-04-24 23:17 43.59702 -70.63277 3391 ft 229 kts 12°
2026-04-24 23:17 43.61225 -70.62844 3295 ft 218 kts 13°
2026-04-24 23:18 43.62594 -70.62102 3195 ft 208 kts 32°
2026-04-24 23:18 43.63641 -70.60760 3091 ft 207 kts 53°
2026-04-24 23:18 43.64307 -70.58994 3007 ft 208 kts 65°
2026-04-24 23:18 43.64881 -70.57193 2911 ft 202 kts 64°
2026-04-24 23:19 43.65446 -70.55442 2823 ft 198 kts 64°
2026-04-24 23:19 43.65895 -70.53665 2730 ft 198 kts 80°
2026-04-24 23:19 43.65866 -70.51811 2540 ft 193 kts 93°
2026-04-24 23:19 43.65740 -70.49985 2377 ft 183 kts 93°
2026-04-24 23:20 43.65626 -70.48262 2161 ft 178 kts 93°
2026-04-24 23:20 43.65515 -70.46589 1985 ft 175 kts 93°
2026-04-24 23:20 43.65405 -70.44920 1866 ft 175 kts 94°
2026-04-24 23:20 43.65298 -70.43296 1674 ft 161 kts 94°
2026-04-24 23:21 43.65203 -70.41870 1468 ft 140 kts 93°
2026-04-24 23:21 43.65117 -70.40579 1276 ft 133 kts 94°
2026-04-24 23:21 43.65034 -70.39332 1091 ft 130 kts 95°
2026-04-24 23:21 43.64953 -70.38097 909 ft 130 kts 95°
2026-04-24 23:22 43.64869 -70.36850 733 ft 131 kts 97°
2026-04-24 23:22 43.64785 -70.35590 556 ft 132 kts 98°
2026-04-24 23:22 43.64699 -70.34320 380 ft 133 kts 97°
2026-04-24 23:22 43.64618 -70.33048 189 ft 133 kts 97°
2026-04-24 23:23 43.64532 -70.31822 89 ft 117 kts 95°
2026-04-24 23:23 43.64485 -70.31095 67 ft 46 kts 95°
2026-04-24 23:23 43.64464 -70.30758 65 ft 16 kts 93°
2026-04-24 23:23 43.64547 -70.30701 58 ft 17 kts 332°
2026-04-24 23:24 43.64579 -70.30857 63 ft 17 kts 278°
2026-04-24 23:24 43.64590 -70.31022 61 ft 16 kts 274°
2026-04-24 23:24 43.64600 -70.31167 69 ft 13 kts 275°
2026-04-24 23:24 43.64627 -70.31280 67 ft 14 kts 313°
2026-04-24 23:25 43.64691 -70.31354 77 ft 9 kts 331°
2026-04-24 23:25 43.64723 -70.31312 77 ft 3 kts 70°
2026-04-24 23:25 43.64730 -70.31289 66 ft 2 kts 63°
2026-04-24 23:25 43.64732 -70.31285 61 ft 0 kts 63°